Theta_e
298 299 298 297 296 295 294 293 293 293 294 293 292 292 292 293 294 292 293 294 293 294 294 293 292 292 294 293 291 292 291 292 292 292 293 293 293 294 295 295 296 297 297 297 298 298 299 300 301 301 303 304 304 303 304 303 302 300 299 298 296 294 294 295 295 294 290 289 292 292 293 294 294 294 293 295 294 293 292 291 291 290 290 289 288
299 297 298 298 298 297 295 294 293 292 293 293 292 292 292 294 293 293 293 293 293 294 293 293 292 291 292 293 292 291 290 290 290 291 292 292 292 292 295 295 295 295 296 296 297 298 298 298 299 300 302 302 302 302 302 302 301 300 299 297 299 295 293 295 296 298 293 290 288 289 289 289 289 289 288 288 289 289 289 289 289 289 289 289 288
296 296 297 296 298 298 296 294 294 293 293 293 293 293 292 292 293 293 293 293 293 294 294 292 292 292 292 292 293 292 293 293 292 291 292 292 292 292 293 294 294 293 294 295 295 296 297 298 298 299 300 301 301 301 301 301 300 300 300 297 295 297 295 297 298 300 292 291 290 289 287 286 287 287 288 287 287 288 288 288 288 288 288 288 288
294 295 295 296 296 296 296 296 294 294 294 294 293 293 292 292 292 293 293 293 293 293 294 294 293 292 292 292 292 291 291 294 294 292 291 291 290 290 291 291 293 293 293 293 295 296 295 297 298 297 297 299 300 300 300 300 300 299 299 297 296 293 295 295 297 300 294 295 293 293 289 287 283 283 284 286 287 287 287 287 287 287 287 288 288
293 294 295 295 294 295 295 294 294 294 294 294 293 293 292 292 292 293 293 293 293 293 293 294 293 293 292 293 293 293 292 290 289 289 289 290 288 288 288 290 291 291 292 291 292 291 292 293 294 294 294 295 297 298 298 298 299 300 300 299 299 296 294 294 295 297 297 296 298 291 290 289 288 285 284 284 286 286 286 286 287 286 286 287 287
294 293 294 294 294 295 295 295 294 295 294 294 294 293 292 292 292 293 293 294 293 293 293 294 292 291 292 290 288 288 288 287 286 286 286 287 286 288 289 289 290 290 290 290 290 290 290 291 291 291 292 292 293 295 296 297 297 299 299 300 299 299 295 293 291 293 293 295 296 299 300 298 287 285 287 282 284 285 285 285 285 286 286 286 287
294 295 295 294 294 294 295 295 294 294 294 294 294 294 293 293 292 293 293 293 294 294 293 293 291 291 291 291 291 289 288 288 288 288 287 288 289 289 289 289 289 290 290 291 291 290 290 290 290 290 290 290 291 291 291 291 292 294 296 298 298 298 296 293 292 291 292 292 293 293 297 299 291 287 291 283 282 283 285 285 285 286 286 286 286
293 293 294 294 294 294 293 294 294 293 293 293 294 294 294 292 292 291 292 293 293 293 293 293 292 291 291 291 291 290 289 288 289 288 289 289 289 289 290 290 290 290 290 291 291 291 291 291 292 291 290 290 290 289 289 290 291 292 292 294 295 296 297 295 293 292 291 289 290 292 293 294 294 296 293 289 288 281 281 284 285 285 286 286 286
292 292 293 293 294 294 294 294 294 294 293 293 293 293 294 294 292 292 291 292 293 293 293 292 292 291 291 290 290 290 291 290 290 290 290 290 289 289 289 290 290 290 290 290 291 291 292 292 292 292 292 291 291 290 290 291 291 292 292 292 293 293 293 292 291 290 290 289 290 291 292 291 292 294 294 293 286 283 282 282 283 285 286 286 286
294 294 294 294 294 294 294 294 295 295 294 293 293 293 294 294 293 291 291 291 292 292 292 293 292 291 290 290 290 289 290 290 291 290 290 291 290 290 290 290 290 289 289 290 290 291 292 292 292 292 292 292 291 291 290 290 290 290 291 291 291 291 292 292 291 290 291 292 292 293 291 290 291 291 290 290 289 289 284 284 284 284 283 285 287
293 293 294 295 295 294 294 294 295 296 296 294 294 293 294 293 293 292 292 291 292 292 292 292 292 292 290 290 290 290 290 291 290 289 290 291 290 290 290 290 291 291 290 290 290 291 291 292 292 292 292 292 291 291 291 291 290 290 290 290 290 290 290 290 290 290 290 290 291 291 291 291 290 289 289 289 288 287 286 285 286 287 287 285 286
293 293 294 294 295 295 295 295 295 296 296 296 296 294 294 293 293 292 293 292 291 292 292 292 292 292 292 291 290 290 290 290 289 288 289 290 290 289 290 290 290 291 292 291 291 292 292 292 292 293 292 292 291 292 292 292 291 292 291 290 290 290 291 290 291 290 290 290 290 290 290 291 291 291 291 291 290 288 288 286 285 286 286 287 288
293 293 293 294 294 294 294 294 295 296 296 296 296 295 294 293 292 291 292 293 292 291 291 292 292 292 291 291 291 290 290 290 290 290 290 289 289 289 290 289 290 290 290 290 291 291 292 292 292 292 291 292 292 292 292 292 292 292 291 291 291 291 290 290 289 290 290 289 288 289 290 290 289 290 291 291 291 291 289 286 286 287 286 286 287
293 293 293 294 294 294 294 294 294 295 295 296 296 295 295 294 293 292 292 293 292 291 292 291 291 292 292 291 291 291 290 290 289 289 290 290 290 289 289 289 289 290 290 290 290 291 291 292 292 291 292 292 292 292 292 292 292 291 291 290 290 290 290 290 289 289 289 289 289 288 288 288 288 289 289 290 290 289 288 286 285 285 286 286 287
294 294 294 294 294 294 294 294 294 295 295 296 296 295 295 295 294 293 293 293 293 292 292 291 291 292 292 292 292 291 291 290 290 290 290 290 290 290 290 290 290 290 290 290 290 291 291 292 292 291 291 291 292 291 292 292 292 291 291 290 290 290 290 290 289 289 289 289 289 288 288 287 287 288 289 289 290 290 289 288 287 285 284 285 285
294 294 295 295 295 294 294 294 294 295 295 295 296 296 296 296 295 293 293 293 292 292 292 291 291 292 292 291 291 291 291 291 291 291 290 290 290 290 290 290 290 290 290 290 290 291 291 291 291 291 291 291 291 291 291 291 292 291 290 290 289 291 290 290 289 290 289 289 288 289 288 287 288 288 288 288 289 290 290 290 289 288 286 284 286
294 294 294 294 294 294 295 294 294 294 295 296 296 296 295 295 295 294 294 293 292 292 292 292 292 291 291 292 292 291 291 291 290 291 291 291 291 290 290 291 291 291 291 290 290 290 290 291 290 290 290 290 290 290 291 291 291 290 290 290 289 290 290 290 290 289 289 289 289 289 288 288 288 288 288 288 288 288 289 288 289 287 287 285 284
294 294 295 295 294 294 294 294 294 294 294 294 295 296 295 294 295 294 294 294 294 293 292 292 291 291 291 292 292 292 292 292 291 290 291 290 290 290 290 290 290 291 291 291 290 290 290 289 290 290 290 290 290 290 290 290 290 289 290 289 290 290 289 289 289 289 289 289 288 289 289 288 288 288 288 288 288 288 288 288 287 287 287 285 285
294 294 294 294 295 295 295 294 294 294 294 293 294 294 294 294 294 294 294 295 294 294 292 292 291 292 292 292 292 292 292 292 292 291 291 290 290 290 290 290 291 291 290 290 290 290 290 290 290 290 290 290 290 290 289 290 290 289 289 289 289 289 289 289 289 289 289 289 288 288 288 288 288 288 288 288 288 288 287 287 287 287 287 287 285
293 293 293 294 294 294 294 294 293 293 293 293 293 293 293 294 294 294 294 293 293 292 292 292 292 291 291 291 291 292 292 292 292 291 290 290 290 290 290 290 290 290 290 291 290 290 290 290 290 290 290 290 289 290 290 289 289 289 289 289 289 289 289 289 289 289 289 289 288 288 288 288 288 288 288 288 288 288 288 287 287 287 287 287 286
293 293 293 293 293 293 294 294 294 293 293 292 293 293 294 294 293 294 294 295 294 294 293 293 293 292 291 291 291 291 291 291 291 291 290 290 290 290 290 290 290 290 290 290 290 290 290 290 290 289 289 289 290 289 290 289 289 289 289 289 289 288 288 289 289 288 289 289 288 288 288 288 289 288 288 289 288 288 288 287 288 287 286 287 286
292 292 292 293 293 293 293 294 294 293 293 293 294 293 293 294 295 295 294 294 295 296 294 294 293 292 292 291 291 291 291 291 291 291 290 290 291 290 291 290 290 290 290 290 289 290 290 290 289 289 289 289 289 289 290 290 289 289 289 290 289 288 288 288 288 288 288 289 288 288 288 288 289 288 288 288 288 288 288 287 287 287 286 287 287
292 292 292 292 292 292 292 291 291 292 292 293 293 293 294 294 294 294 293 295 296 296 296 294 293 292 292 292 291 291 290 290 290 290 290 291 291 291 291 290 290 289 290 290 290 290 290 289 289 289 289 289 289 289 289 289 289 289 289 289 289 289 288 288 288 288 288 289 288 288 288 288 289 288 288 288 288 288 288 287 287 287 287 287 287
292 293 292 292 292 292 291 291 293 293 294 293 294 293 293 293 294 294 293 295 296 295 294 293 292 292 292 292 291 291 290 289 289 290 290 291 291 291 291 290 290 290 290 290 290 290 290 289 289 289 289 289 289 289 289 289 289 289 289 289 289 289 289 289 289 289 289 289 288 288 288 289 289 288 288 288 288 288 288 287 287 288 287 287 287
292 292 292 292 292 292 292 293 292 293 292 292 292 293 293 293 294 293 294 295 295 295 293 293 292 293 293 291 291 291 290 290 289 290 290 291 291 290 290 290 290 290 290 290 290 290 289 289 289 288 289 288 289 289 289 289 289 289 289 289 289 289 289 289 289 289 289 289 289 288 288 289 289 288 288 288 288 288 288 287 287 287 287 287 287
291 292 292 292 292 292 292 292 293 293 292 292 292 293 292 292 293 293 293 294 294 294 293 292 292 292 292 292 292 292 291 290 290 291 290 290 290 290 290 290 289 289 290 290 289 289 289 288 289 289 289 289 289 289 289 288 289 289 289 289 289 289 289 289 289 289 289 289 289 289 289 289 288 288 287 288 288 288 288 287 287 287 287 287 287
291 291 291 290 290 292 293 293 293 292 292 292 292 292 292 292 293 293 293 293 293 293 293 292 292 292 292 293 293 293 292 292 291 291 291 291 290 290 289 289 289 289 289 289 289 289 289 289 289 289 289 289 289 289 289 289 288 289 288 288 288 288 288 288 289 289 289 289 289 289 289 289 288 288 288 288 288 288 288 287 287 287 287 287 286
291 291 291 291 291 292 292 293 293 293 293 293 293 292 292 292 292 293 293 293 293 292 291 292 292 292 292 293 294 294 293 293 292 292 291 290 290 289 289 289 289 288 288 288 289 288 289 289 288 289 289 289 289 289 289 288 288 288 288 288 288 288 288 288 288 288 288 288 288 288 288 289 289 289 288 288 288 288 288 287 288 287 287 286 285
291 292 292 292 292 293 293 293 294 293 293 293 293 293 293 292 292 292 292 292 292 291 291 292 292 291 293 294 294 294 293 292 291 290 290 290 290 290 289 289 288 288 289 289 289 289 288 288 288 288 288 289 288 288 289 288 288 288 288 288 288 287 287 287 287 288 288 288 288 288 288 288 289 288 287 287 288 288 288 287 287 287 287 286 285
291 292 293 293 293 293 293 293 293 293 293 293 293 293 294 294 294 294 293 293 292 291 291 291 292 292 294 294 294 293 292 292 291 290 290 290 290 289 289 288 288 288 288 288 288 288 288 288 288 288 288 288 288 288 287 287 288 288 288 288 288 287 287 287 287 287 287 287 287 288 288 286 286 285 285 286 286 287 286 286 286 287 286 286 285
292 293 293 294 294 293 293 292 293 293 294 294 294 294 294 293 293 293 293 293 292 291 291 291 292 293 293 293 293 292 292 291 291 291 291 290 290 290 289 288 288 288 288 287 287 287 287 287 287 287 287 288 288 288 287 288 288 288 287 287 287 287 287 287 286 286 286 287 287 287 287 287 286 285 285 285 286 286 286 286 286 286 286 286 285
293 293 294 294 294 294 294 294 294 295 295 295 295 295 294 293 294 294 294 294 292 291 291 291 292 292 292 292 292 292 292 291 291 291 291 291 290 289 289 289 288 288 288 287 287 287 287 287 287 287 287 287 288 287 288 287 288 288 287 287 287 287 287 287 286 286 286 286 287 287 287 288 287 287 287 286 285 285 286 286 286 286 286 286 286
293 293 293 294 294 294 295 295 295 295 295 296 296 294 294 294 294 295 294 293 292 291 291 291 291 291 291 292 292 292 291 291 292 292 291 291 290 289 289 289 288 289 288 287 287 287 287 287 287 286 286 286 287 287 288 288 287 288 288 287 287 287 287 286 286 286 286 286 286 287 287 287 288 285 285 286 286 286 286 286 286 286 286 287 287
293 293 293 294 294 294 295 295 295 295 295 295 294 293 294 294 293 293 292 291 291 291 291 291 291 291 291 291 291 291 291 291 292 292 291 291 290 289 290 290 289 289 288 287 287 287 287 287 287 286 286 286 287 287 288 288 287 287 288 288 288 288 288 287 287 287 287 287 287 286 286 286 287 287 286 286 286 285 286 286 286 286 286 286 286
293 294 294 295 295 295 295 295 295 294 295 294 294 294 294 293 293 292 291 291 291 291 291 291 290 291 291 291 291 291 291 291 291 291 291 290 290 290 290 290 289 289 288 288 288 287 287 287 287 286 286 286 286 287 288 288 287 287 288 288 288 288 288 288 288 288 287 287 287 287 287 286 287 287 287 286 286 286 286 286 285 285 286 286 286
295 295 296 296 296 296 295 295 296 296 295 294 293 294 293 293 293 292 291 291 290 290 290 290 290 291 291 291 291 291 291 291 291 291 290 290 290 290 290 290 289 289 289 288 288 289 288 288 287 286 286 285 286 287 287 287 287 287 288 288 288 288 288 288 288 288 288 288 288 288 287 287 287 287 286 286 286 286 286 285 285 285 285 286 286
297 297 296 297 297 295 295 295 294 294 293 293 294 293 293 292 291 291 291 291 290 290 290 290 290 291 291 291 291 291 291 291 291 290 290 290 290 290 290 290 289 289 288 288 287 287 287 287 287 286 286 285 286 286 287 287 287 287 287 287 287 288 288 288 287 288 288 288 288 288 288 287 287 287 287 287 287 285 284 284 284 284 284 284 284
294 295 294 294 294 294 294 293 292 292 292 293 293 292 291 291 290 291 290 290 290 290 290 291 291 291 291 292 291 291 290 290 290 290 290 290 291 291 290 290 289 289 288 288 288 287 287 287 286 286 286 285 285 286 286 287 287 287 287 287 287 287 287 287 287 288 288 288 288 286 286 287 287 286 287 287 287 286 284 283 283 283 282 281 281
293 293 293 294 294 294 294 293 292 291 292 293 292 292 291 290 290 290 291 290 290 291 291 291 291 292 292 292 292 291 291 290 290 290 290 290 290 290 290 289 289 289 289 289 288 286 286 286 286 286 285 285 285 285 286 287 287 287 286 287 287 287 286 286 286 286 287 287 287 286 285 285 286 286 287 287 287 286 285 284 283 282 281 280 280
295 294 294 293 293 292 291 291 291 292 294 293 293 292 291 290 290 291 290 290 290 291 292 292 292 292 292 292 292 291 290 290 290 290 290 290 290 289 289 289 289 289 288 288 287 286 286 285 285 285 284 284 284 284 285 287 287 287 287 286 287 286 286 285 286 286 286 286 286 286 286 286 286 286 286 286 286 286 285 285 283 280 280 279 281
293 293 292 293 293 293 292 292 292 293 293 293 292 291 290 291 291 290 290 291 292 292 292 292 292 292 292 291 291 291 290 290 290 290 290 289 289 289 289 288 288 288 287 287 285 285 285 285 285 286 285 284 284 284 285 286 286 287 287 286 286 286 286 286 286 286 285 285 285 285 286 286 286 286 286 286 286 286 286 285 282 281 281 281 280
293 292 291 292 292 292 292 292 292 293 292 292 292 290 290 290 290 290 291 293 293 293 292 292 291 291 291 291 291 291 290 290 290 289 288 288 289 289 288 288 288 287 286 286 285 285 285 285 285 285 284 284 284 284 284 285 286 286 286 287 286 286 287 286 285 285 285 285 285 285 285 284 285 285 286 286 286 286 286 283 282 282 281 280 279
293 293 293 292 291 291 291 292 293 293 293 293 291 289 290 290 290 291 292 293 293 293 292 291 291 290 290 290 290 289 289 290 289 288 288 287 288 287 287 287 286 286 286 285 284 284 285 285 285 284 284 284 284 284 284 284 284 285 286 286 287 286 287 286 285 284 284 285 286 285 284 283 284 284 285 286 286 286 285 282 282 282 281 280 279
293 293 293 292 291 291 291 292 292 293 293 292 291 290 289 289 290 292 293 293 292 292 291 290 289 288 289 289 288 288 289 289 288 288 287 286 286 286 286 286 286 286 285 285 284 284 284 284 284 284 284 284 284 284 284 284 284 284 285 286 286 287 287 286 285 285 285 286 285 284 283 283 283 284 285 285 285 285 283 283 282 281 281 279 276
292 292 292 291 291 291 291 291 292 292 293 292 292 290 288 288 291 292 292 292 291 290 289 289 288 288 288 288 288 288 288 288 288 288 286 286 286 286 285 286 285 285 285 284 284 285 284 285 285 284 285 285 285 285 285 284 283 283 284 285 285 286 286 287 285 286 286 285 285 284 283 283 283 284 284 284 284 283 283 282 281 280 278 276 274
293 292 292 291 291 291 290 290 291 291 292 292 292 291 288 289 292 292 292 291 289 288 287 287 287 287 288 287 287 287 287 287 287 287 287 287 286 286 286 286 286 285 284 284 284 285 285 285 284 285 285 286 286 285 285 284 283 283 283 283 284 284 284 285 285 286 285 285 284 283 282 282 283 283 283 282 281 281 281 280 279 276 275 274 274
292 293 291 291 289 290 290 290 290 291 292 292 291 292 291 292 291 291 290 289 288 287 287 287 287 287 287 287 286 287 287 287 287 287 287 286 286 286 285 285 286 285 284 284 284 283 283 284 284 284 284 285 285 285 284 283 281 280 281 281 281 282 283 283 284 285 285 284 283 282 282 282 283 283 281 279 278 278 277 276 274 274 274 273 272
292 292 291 289 289 289 289 289 290 291 292 292 291 291 292 291 291 290 289 288 287 287 287 287 287 287 288 288 287 284 285 286 287 287 286 286 285 285 285 285 285 285 284 284 284 283 283 284 284 285 285 284 284 284 283 282 281 279 279 280 281 282 282 283 283 284 283 282 281 281 281 280 279 278 277 276 275 274 273 273 272 272 272 271 271
291 290 289 290 289 289 289 289 290 291 291 291 290 290 291 290 290 289 288 287 287 287 287 286 287 287 287 287 287 287 287 287 287 287 287 286 286 285 285 285 286 287 286 286 286 286 285 285 285 284 284 284 284 283 284 284 282 282 281 280 281 281 283 284 284 282 280 280 279 279 277 276 276 275 273 273 272 271 271 271 270 269 269 269 268
291 291 289 288 288 287 287 287 289 290 290 289 289 290 290 290 289 288 287 287 286 287 286 287 287 287 287 287 287 287 286 286 286 286 286 286 283 285 286 286 285 285 285 285 285 286 286 286 285 285 285 284 284 286 285 284 283 282 282 282 282 283 284 283 282 282 280 278 277 276 275 275 274 273 272 272 271 271 270 270 269 269 268 267 267
291 289 288 288 288 288 287 287 288 288 288 288 288 289 289 289 289 288 287 287 286 286 287 287 287 287 287 287 287 286 286 286 286 286 286 285 285 285 284 284 285 285 285 284 284 284 285 285 284 284 285 285 284 284 283 283 283 283 283 283 282 283 283 283 282 280 278 277 276 275 275 275 274 273 272 272 272 271 270 270 269 268 267 267 266
Wind_Speed
7 7 5 4 4 4 4 5 5 7 3 5 6 8 8 8 9 10 9 10 9 9 8 8 8 8 5 7 7 8 9 10 8 9 10 10 11 11 10 7 8 10 12 11 11 9 6 6 6 8 7 9 10 10 8 11 11 12 11 9 13 13 9 7 8 8 13 11 8 9 8 7 7 8 8 6 6 5 4 4 4 5 5 6 6
7 8 9 4 2 3 3 3 5 7 7 6 7 7 8 8 8 9 9 9 9 9 8 7 7 6 5 4 6 6 7 9 10 10 11 9 10 10 10 8 9 10 10 10 9 9 6 5 6 6 9 9 11 11 11 11 11 9 10 11 6 10 9 7 7 4 5 8 8 6 7 7 7 8 8 8 6 6 5 5 5 6 6 5 5
9 8 9 9 8 4 2 3 4 4 6 6 5 6 7 7 7 7 8 8 8 9 8 7 7 6 6 4 4 4 3 4 4 7 7 9 11 11 10 9 9 9 9 9 8 8 8 6 6 6 7 6 8 10 10 9 9 8 6 9 9 6 6 2 0 2 7 8 8 8 5 4 4 6 7 8 7 7 6 6 5 5 6 4 4
9 9 9 9 9 6 5 4 4 5 5 5 5 6 5 6 8 8 7 7 7 8 8 7 6 6 5 4 3 2 2 3 2 5 9 10 11 11 11 11 11 9 10 10 6 6 6 4 4 6 6 6 6 8 8 8 7 7 8 7 10 10 3 3 4 3 7 6 4 2 4 5 6 3 5 5 6 7 6 5 4 4 4 4 3
8 9 9 9 9 9 7 5 4 5 5 5 5 5 3 6 6 7 6 7 7 8 8 7 7 6 5 4 3 2 1 4 4 8 8 8 7 10 10 10 10 10 10 9 6 5 5 6 7 7 7 6 6 7 7 7 6 5 5 5 4 7 7 3 3 2 2 3 3 7 3 1 1 6 6 4 3 4 6 5 4 4 3 3 3
5 7 8 8 7 9 7 4 4 4 5 5 4 4 4 5 5 6 6 6 7 8 8 6 7 7 8 8 8 8 7 8 9 8 8 8 8 7 9 10 10 9 8 5 4 5 7 8 8 7 7 6 6 6 6 6 6 5 3 3 5 4 7 8 6 0 3 3 3 3 1 2 8 7 4 3 4 4 3 4 3 3 2 2 2
7 6 6 7 8 8 8 6 5 5 5 5 5 4 3 3 4 4 5 6 5 6 8 6 6 6 7 7 6 6 6 5 5 5 6 6 5 6 5 7 8 7 7 7 7 7 7 8 8 8 7 7 6 6 6 6 4 4 3 3 4 6 7 8 7 4 2 2 3 3 1 1 8 10 5 7 4 2 2 2 1 0 1 2 2
6 7 7 7 7 7 8 8 6 5 6 5 5 4 3 3 4 4 3 5 5 5 6 7 6 6 6 6 6 7 7 6 6 5 5 5 6 7 6 6 7 7 7 8 8 8 8 8 8 7 7 7 6 6 5 5 5 4 4 4 3 3 4 7 7 5 4 2 1 3 5 8 7 1 9 5 6 8 4 2 2 2 1 1 1
6 6 7 7 7 7 7 7 6 6 4 4 5 5 4 2 2 2 2 3 4 6 5 5 6 5 5 5 5 5 5 5 4 4 5 5 7 7 7 7 7 8 8 8 8 8 8 7 7 7 7 7 6 6 6 6 6 5 5 4 4 3 4 4 4 3 4 5 5 5 6 6 3 4 4 3 4 6 5 6 5 3 2 3 2
6 6 6 6 6 6 6 6 5 4 3 4 5 4 4 3 3 2 1 1 2 4 5 4 3 4 5 5 5 4 5 4 4 5 5 5 6 6 5 6 6 6 7 8 7 8 7 7 6 7 7 6 6 6 6 7 7 6 6 5 5 5 4 4 4 4 3 2 2 5 5 5 5 4 3 4 4 3 6 7 6 6 5 4 3
7 9 8 7 5 6 6 6 4 3 2 2 3 3 4 4 4 3 2 1 1 1 3 4 3 2 3 4 4 3 3 4 4 5 5 6 6 6 6 5 4 5 4 5 6 6 6 6 5 5 5 5 5 5 5 5 5 5 5 6 6 5 4 4 5 4 3 3 2 1 3 3 3 5 6 5 4 5 6 5 5 4 3 5 4
8 8 8 9 9 5 4 6 6 5 3 2 2 2 3 4 4 5 3 2 2 1 2 2 3 3 1 1 3 4 3 2 2 3 4 5 5 5 4 4 5 4 5 5 6 7 5 5 5 5 5 5 5 5 5 4 4 4 4 4 5 5 4 4 4 4 4 4 4 3 2 2 3 3 2 2 3 5 5 6 5 4 2 2 2
7 7 7 8 7 7 8 7 7 6 5 5 4 3 2 3 4 5 6 2 2 3 2 2 3 3 3 3 1 1 3 4 2 1 1 1 2 3 3 3 3 4 5 5 5 7 5 5 6 5 5 5 5 5 5 5 4 4 5 5 4 4 4 3 4 4 3 3 3 3 3 4 4 4 3 3 3 3 5 6 3 1 2 3 2
6 6 6 6 6 7 6 6 6 6 5 5 4 3 2 3 3 5 7 5 3 3 4 4 4 3 3 3 3 2 2 2 3 3 2 1 0 0 1 2 2 2 3 3 4 5 4 4 5 5 5 5 5 5 5 5 5 4 4 4 5 4 4 5 5 5 5 5 4 4 5 5 5 5 5 4 4 3 3 4 4 2 1 2 2
4 5 6 6 7 7 7 6 6 6 6 5 4 3 3 3 3 4 6 6 5 5 4 5 4 4 4 3 3 2 2 2 2 2 2 2 1 1 0 0 0 1 1 2 3 3 4 4 4 4 4 4 4 4 4 4 4 4 4 4 4 4 4 4 4 5 5 5 6 5 4 4 4 4 4 4 3 3 3 4 4 4 3 2 2
6 7 7 8 7 6 6 6 6 6 6 5 5 4 3 3 3 4 6 5 5 5 5 5 5 4 5 5 5 4 3 3 3 2 2 2 2 2 2 1 1 1 0 1 1 2 2 2 2 3 3 3 3 3 3 3 3 3 3 3 4 2 3 5 4 5 5 5 5 4 4 4 3 3 3 3 3 3 3 2 1 0 1 2 3
7 6 6 8 7 6 5 6 6 6 6 6 6 5 5 5 4 5 5 5 5 6 6 6 5 5 6 6 6 5 5 5 4 4 3 3 3 3 3 2 1 2 2 2 2 2 1 0 1 1 1 2 2 2 2 2 2 2 3 3 3 3 3 3 3 3 4 3 3 3 4 3 3 3 3 3 3 2 2 2 2 2 2 1 2
8 8 7 7 6 7 6 5 6 7 8 8 8 5 4 5 6 6 5 6 5 5 5 5 6 7 7 7 7 7 6 6 5 5 4 4 4 4 3 3 3 2 2 2 2 3 3 2 2 2 2 2 2 2 2 2 2 2 2 2 2 2 3 3 3 3 3 3 3 2 3 3 3 2 2 2 2 2 2 1 1 1 1 1 2
8 8 8 8 7 7 7 7 7 7 7 8 8 6 5 6 6 6 7 6 5 4 4 4 5 5 5 7 7 7 7 6 6 6 5 5 6 5 5 4 4 3 4 3 4 4 3 3 3 3 3 3 3 3 3 3 2 3 3 3 3 2 2 3 2 2 2 3 3 3 2 3 3 3 3 3 2 2 2 2 2 2 1 2 2
8 8 8 8 9 9 8 8 8 8 8 7 7 6 7 6 6 6 6 6 5 6 6 6 6 6 5 6 7 7 7 7 7 7 6 7 7 7 6 6 6 4 5 4 4 5 4 4 4 3 3 3 3 3 3 3 3 3 3 3 3 3 3 3 3 3 2 3 4 4 4 3 3 3 3 3 3 3 3 3 3 3 3 3 3
8 8 8 9 9 10 10 8 7 7 6 7 6 7 6 5 6 6 7 7 6 6 5 6 5 6 6 8 8 7 8 7 7 8 8 8 8 7 7 7 5 6 5 6 6 6 6 6 5 5 5 5 5 4 4 4 4 3 3 3 4 4 4 4 3 4 4 4 4 4 4 4 4 4 4 4 4 4 4 4 4 4 4 5 5
9 9 9 9 9 9 9 8 6 5 6 6 5 5 6 7 5 4 5 6 6 6 6 5 5 5 7 7 7 7 6 6 8 8 9 9 8 8 8 7 8 8 7 7 8 7 6 7 7 7 7 6 6 6 5 5 5 5 5 3 4 5 6 5 5 5 6 5 5 6 6 6 6 6 5 6 5 5 5 6 6 6 6 6 7
10 10 9 8 8 8 9 10 10 9 8 7 6 5 5 6 5 5 5 8 7 6 4 4 5 5 7 6 6 6 6 7 8 8 9 9 9 9 8 8 9 8 8 8 8 8 8 8 8 8 8 8 8 7 7 6 7 7 7 6 6 7 7 7 7 7 8 7 7 7 8 7 5 7 8 8 7 8 7 8 8 7 8 8 8
9 8 7 7 7 8 7 8 8 7 7 7 6 6 6 6 5 5 7 8 6 5 4 4 5 6 6 6 6 6 7 7 8 8 9 10 8 8 7 8 9 8 8 8 9 9 9 9 9 9 9 9 9 8 8 8 9 9 8 9 8 8 8 8 8 8 8 8 8 9 9 9 8 9 9 8 8 8 9 8 9 9 9 10 9
10 10 9 9 8 8 7 7 8 8 7 7 7 6 6 6 5 6 7 7 6 4 4 5 5 6 6 6 7 7 7 8 9 8 9 9 8 8 7 8 8 8 9 8 8 8 9 9 9 10 10 10 10 10 10 10 9 9 10 9 9 9 9 10 10 10 9 9 9 10 10 9 9 9 9 9 9 10 9 9 10 9 9 9 8
10 10 10 10 9 8 8 8 7 7 7 7 8 7 7 7 7 6 6 6 6 4 4 5 5 6 6 7 7 7 8 9 9 9 9 8 8 8 8 8 8 9 9 9 9 8 8 10 10 11 11 11 10 10 11 11 11 10 10 10 10 10 10 10 10 10 11 10 10 11 11 10 10 10 10 10 10 11 9 9 11 10 9 8 9
10 10 9 8 9 10 9 9 8 8 8 7 7 8 7 7 8 8 6 6 6 4 5 5 6 6 6 8 8 8 8 8 8 8 7 7 8 8 8 9 8 9 9 9 9 10 9 10 11 10 11 11 11 10 10 11 11 11 11 11 10 11 11 10 10 11 11 11 11 11 11 11 11 11 11 11 10 10 9 10 11 10 9 9 9
8 8 8 9 10 10 10 10 10 8 7 7 7 7 8 7 8 7 6 5 5 5 6 6 6 6 7 8 8 8 7 7 6 6 7 7 7 8 9 8 8 9 10 10 10 10 9 9 10 10 11 10 10 10 10 11 10 11 10 10 11 11 11 11 11 11 11 11 12 12 12 12 12 12 12 11 11 10 9 9 10 9 9 10 10
10 10 9 9 9 9 10 10 9 9 9 9 7 7 6 7 7 8 6 7 5 5 6 6 6 7 8 8 7 6 5 6 6 6 7 8 8 8 8 8 8 9 8 9 9 9 9 10 10 10 10 9 9 10 9 9 10 11 11 11 11 11 11 12 11 12 12 12 12 12 12 12 13 14 15 13 12 9 8 10 9 9 10 10 10
11 11 11 10 10 10 10 10 10 10 9 9 7 7 7 7 7 6 7 7 4 6 6 7 7 8 7 7 6 6 6 6 6 8 8 8 7 7 7 8 9 9 9 8 9 9 9 10 10 10 10 9 9 8 11 15 13 10 10 9 9 11 11 12 12 11 12 12 13 12 11 16 16 16 16 17 17 16 16 13 11 9 10 10 10
11 11 11 10 10 10 10 10 10 10 10 8 8 8 7 7 8 7 7 5 4 6 7 7 9 8 7 6 6 7 6 7 8 7 7 8 8 7 7 8 8 8 9 9 8 9 10 10 11 10 10 9 9 9 15 14 16 18 13 10 10 11 11 11 12 12 12 12 11 12 12 13 15 16 16 19 16 17 17 19 20 19 16 12 10
12 11 10 10 10 10 10 10 10 10 9 8 8 8 6 9 8 8 7 4 5 6 8 8 8 8 8 8 7 7 7 8 7 9 9 8 7 7 8 8 8 8 9 8 9 10 10 9 9 10 10 10 10 12 14 16 17 18 16 12 11 10 10 11 11 12 11 11 12 11 10 9 10 13 11 12 15 19 19 19 21 20 20 21 19
11 11 11 11 10 10 10 10 9 9 9 9 8 7 9 9 8 8 6 6 7 7 8 9 9 8 9 8 8 8 8 8 9 9 8 7 7 7 8 8 10 9 7 8 10 9 10 9 9 10 10 10 10 12 13 16 17 18 19 16 11 11 11 12 11 12 12 12 11 10 10 9 9 13 12 12 11 11 16 19 19 19 19 20 20
12 11 11 11 10 9 9 10 10 11 10 9 7 8 10 9 8 8 7 8 8 9 8 9 9 9 9 9 9 9 9 10 9 8 8 8 8 9 9 8 7 6 8 8 9 10 9 9 9 10 9 9 10 10 14 16 16 18 18 17 13 13 12 12 13 12 11 12 12 11 10 10 9 9 10 11 11 12 10 10 12 13 13 14 18
11 11 11 11 11 11 11 10 10 9 8 7 8 8 8 8 7 8 7 8 8 9 9 9 10 9 8 9 10 10 10 10 9 9 9 9 9 9 9 8 8 9 8 9 9 9 9 9 9 8 8 9 8 11 13 15 16 17 18 16 12 11 11 12 12 13 13 13 12 11 11 11 10 9 8 10 10 10 10 9 10 10 11 11 11
10 10 11 10 10 11 11 11 9 6 7 6 9 9 8 10 7 8 9 8 8 9 11 9 10 10 10 10 10 10 10 10 9 9 9 10 10 10 10 8 8 8 7 7 8 8 9 9 9 8 8 10 9 11 13 15 16 17 17 11 11 12 12 12 12 12 12 11 11 11 11 11 11 11 11 12 12 10 10 11 11 11 10 10 10
10 10 12 11 11 11 11 9 9 8 8 10 10 9 9 9 9 8 9 9 8 10 10 10 11 12 11 10 10 10 10 10 9 9 10 11 10 10 10 7 7 8 8 8 8 8 7 8 8 9 10 10 9 11 13 15 16 17 13 10 11 10 11 12 12 11 11 11 11 12 12 11 11 12 12 13 16 14 11 12 11 11 9 8 8
11 11 11 12 11 11 10 8 10 10 10 9 9 9 9 9 10 9 9 10 9 10 11 11 12 12 11 10 9 10 10 10 9 10 11 10 10 9 9 7 8 8 8 9 7 7 7 8 9 9 10 10 9 10 12 13 16 17 15 11 10 10 11 11 11 10 10 10 12 14 13 12 12 11 11 13 15 13 11 11 11 11 10 9 8
9 10 12 13 12 12 11 9 9 11 12 11 10 10 9 10 10 10 10 11 10 10 11 11 12 11 10 10 9 9 10 10 10 11 10 10 10 9 7 5 7 8 9 7 6 7 6 6 8 9 10 11 10 11 12 13 16 17 14 10 10 9 10 11 9 9 10 9 10 11 16 15 13 13 13 13 15 14 11 11 10 9 9 9 8
10 9 10 13 12 12 13 11 11 12 11 11 10 9 10 11 11 10 11 11 11 11 11 11 11 12 10 9 8 9 10 10 11 11 9 10 8 6 7 7 8 7 8 7 6 6 8 7 6 7 8 10 11 9 11 14 16 17 19 11 9 10 11 11 9 9 8 9 10 9 10 15 19 18 16 14 15 16 13 11 9 9 9 9 6
13 13 12 10 11 10 13 14 11 11 11 10 9 9 11 11 11 11 13 11 11 10 11 12 11 11 10 9 9 9 11 10 10 10 8 9 8 8 7 7 8 7 7 7 7 7 8 8 7 9 9 9 9 10 11 14 16 18 19 17 11 12 11 9 9 9 9 9 8 8 7 10 15 17 17 17 16 17 17 13 10 9 9 6 6
11 12 11 10 11 12 13 13 10 9 10 9 8 10 11 11 11 14 14 10 9 10 11 10 11 11 10 9 9 10 10 9 8 8 8 9 8 7 7 8 6 7 8 9 8 6 7 8 8 9 9 10 11 15 11 13 15 17 18 20 13 12 11 9 9 10 9 8 8 6 6 8 13 15 16 16 17 17 19 10 9 9 7 8 4
11 10 9 8 10 12 13 15 11 8 9 9 9 12 12 10 13 17 11 9 10 10 10 11 11 11 9 9 9 10 9 6 7 8 9 9 8 4 6 8 8 8 9 9 8 8 8 9 9 7 7 9 9 8 13 13 15 16 18 19 20 14 13 10 10 10 10 9 6 6 6 8 12 14 15 16 16 18 14 9 9 10 8 8 6
11 11 10 8 11 11 13 13 11 9 9 9 8 11 10 13 16 13 9 10 10 10 9 10 11 9 9 9 8 8 9 8 8 6 6 7 6 5 4 6 7 8 7 7 7 7 7 8 9 8 7 7 7 8 10 16 15 15 16 17 18 20 18 12 10 10 9 9 7 6 6 10 12 14 15 15 16 15 12 13 11 13 10 9 5
12 12 11 9 10 13 12 13 12 11 9 9 8 10 11 14 15 10 10 10 10 9 9 10 10 9 9 8 7 7 7 6 5 6 6 7 6 5 7 7 7 7 8 8 8 6 7 8 7 8 7 6 7 7 8 9 11 11 14 17 18 18 19 19 13 11 10 8 6 5 8 10 11 13 14 14 13 14 15 12 12 10 11 5 4
10 10 9 10 9 10 11 12 14 12 10 10 9 8 12 14 11 11 10 10 9 10 10 11 11 10 10 10 9 9 9 8 8 6 6 6 6 6 7 7 7 7 7 8 8 7 8 8 7 7 7 7 5 5 5 5 5 8 10 14 16 16 17 17 17 13 11 11 10 9 9 10 11 12 11 10 6 6 10 11 11 11 4 4 4
13 12 9 9 6 10 13 13 15 13 9 11 9 10 10 10 10 9 8 7 8 10 11 11 12 11 10 9 9 6 5 6 7 6 6 6 6 6 7 8 8 7 7 7 8 7 7 6 7 7 7 5 5 5 6 4 4 4 5 6 7 9 14 14 11 11 10 6 6 7 7 9 9 11 8 8 8 9 9 7 5 3 4 3 4
12 12 9 8 10 9 12 12 13 13 8 10 12 12 11 11 9 7 6 7 9 10 10 11 13 10 6 8 6 10 10 7 7 6 6 5 6 7 8 9 9 8 7 8 7 7 8 6 6 7 6 5 6 6 5 6 6 5 5 6 6 6 7 7 8 7 5 5 6 7 9 7 7 7 6 5 4 3 3 4 4 3 3 3 3
15 13 9 10 9 10 13 12 14 10 9 10 11 13 11 10 9 7 6 7 10 10 10 12 12 9 9 7 6 6 7 7 7 6 7 7 6 6 9 9 10 6 7 7 6 6 5 4 4 5 5 7 7 6 7 6 7 7 7 6 6 7 7 7 8 9 5 5 6 6 7 6 6 7 6 5 4 4 3 3 4 3 3 3 3
14 11 10 11 11 11 13 13 14 11 10 10 11 12 11 9 7 6 5 8 10 10 9 11 10 8 6 6 6 6 5 7 8 8 7 8 11 14 11 9 9 11 12 13 11 9 7 5 6 9 8 7 6 2 3 6 7 9 13 13 12 11 9 5 8 15 9 7 7 6 7 8 10 8 7 7 6 6 5 4 3 4 3 3 3
14 12 13 11 12 11 11 13 13 9 9 10 11 12 12 10 7 6 6 8 9 8 6 7 8 7 9 6 6 6 6 6 7 7 7 7 6 7 15 18 16 12 10 13 16 19 18 16 10 7 4 9 10 8 7 8 9 10 11 13 14 14 14 11 14 10 6 7 7 7 9 8 6 6 5 6 5 5 5 4 4 4 3 3 3
Wind_Direction
323 306 297 308 308 316 310 307 308 311 311 341 346 350 355 355 350 353 346 349 355 356 3 356 355 351 5 15 355 351 342 347 352 355 16 17 11 12 21 18 12 34 39 31 15 2 16 40 52 71 76 89 94 87 91 108 106 111 111 97 112 109 99 106 98 96 101 86 79 84 79 68 69 64 59 53 48 51 52 57 50 47 47 45 33
335 345 347 334 323 310 301 293 311 331 342 346 357 350 350 348 0 350 353 353 355 359 359 358 356 356 343 351 347 335 354 356 351 356 5 9 12 19 17 10 12 38 40 35 15 359 8 40 53 59 78 84 91 92 90 96 99 99 114 108 80 110 118 138 149 127 66 121 127 103 85 85 74 69 68 62 61 55 54 55 49 45 43 40 38
332 347 342 341 337 333 313 310 311 318 316 330 347 346 357 357 1 355 355 353 358 356 360 3 351 348 345 348 1 330 305 347 337 346 348 13 16 16 16 15 18 31 42 42 27 348 357 31 51 49 53 69 85 95 98 88 87 91 85 110 107 44 96 80 182 305 126 118 117 110 128 107 73 68 62 55 52 52 50 52 52 57 51 46 44
329 334 335 337 336 336 335 329 331 313 315 330 349 352 359 2 356 351 351 354 359 1 350 353 351 339 338 337 345 348 315 306 324 3 17 17 21 17 12 13 16 18 26 32 13 332 326 343 31 49 55 52 76 85 79 79 82 87 100 104 118 123 111 61 358 74 122 133 123 48 137 122 114 91 90 64 57 51 53 51 47 51 53 50 50
319 322 329 335 334 333 333 320 311 305 317 323 339 349 343 353 353 343 342 349 355 357 353 346 342 340 339 332 323 326 316 354 346 17 18 8 9 19 13 11 21 25 23 22 6 339 356 19 38 48 51 46 60 75 76 76 75 86 98 118 122 132 124 114 55 12 22 334 126 127 95 227 145 131 124 70 44 59 45 47 45 47 53 55 67
298 308 315 317 321 323 334 328 319 304 308 319 323 321 333 342 353 347 344 352 356 354 352 351 354 355 355 6 8 6 8 7 13 360 352 8 11 1 16 16 18 29 29 16 5 7 20 22 28 40 43 40 48 67 80 83 82 98 85 107 107 96 123 120 133 123 8 8 6 353 41 219 146 171 163 131 84 71 64 49 41 44 54 63 76
330 320 318 323 334 333 336 348 332 311 306 314 306 305 313 332 349 347 345 346 351 345 353 350 7 5 5 1 2 2 2 14 1 354 350 355 6 20 28 26 23 26 25 23 26 31 33 33 35 38 37 37 41 57 64 65 68 69 89 104 115 124 133 128 146 142 126 47 33 358 143 139 143 149 174 120 135 141 148 144 129 86 61 62 72
322 317 320 327 327 331 329 331 331 321 307 297 293 293 307 335 334 345 345 344 347 340 353 355 357 4 5 9 4 5 4 353 350 355 355 353 7 15 21 28 29 25 23 25 24 30 38 43 42 45 48 44 44 46 59 71 81 64 54 65 96 120 140 139 141 167 164 123 43 99 99 115 134 12 147 163 145 151 158 154 174 196 185 143 84
318 313 320 323 323 323 323 324 326 314 306 294 292 296 297 290 294 307 331 343 346 340 343 4 353 353 1 8 16 7 352 353 343 349 359 359 19 16 17 18 22 25 24 21 23 28 33 36 38 45 50 51 53 56 51 52 57 63 63 65 63 62 54 76 118 118 115 123 120 102 111 112 108 121 144 142 140 142 143 176 168 178 208 183 187
327 322 310 310 317 314 308 300 304 325 301 286 280 281 280 276 272 293 309 332 345 331 334 348 2 344 1 5 6 15 356 352 357 1 4 2 21 18 18 21 16 19 17 16 20 23 27 31 37 43 48 56 59 64 63 60 55 56 52 57 55 66 53 54 69 79 83 106 119 136 128 128 124 135 158 142 114 142 165 175 175 177 182 168 176
328 324 321 321 310 296 304 302 316 325 294 271 289 291 291 282 280 276 265 235 247 305 320 328 336 353 358 347 348 2 7 349 10 14 5 9 15 15 14 17 18 25 20 25 22 16 29 34 40 47 54 53 57 60 67 74 77 76 71 68 60 66 76 85 86 86 102 89 59 102 141 165 174 174 170 173 165 140 132 149 166 194 166 154 172
317 319 322 327 329 327 313 325 338 336 334 338 302 293 290 287 283 284 257 204 194 230 255 296 312 325 332 328 337 339 338 356 33 35 3 3 359 5 2 7 16 20 20 28 21 9 15 24 30 41 45 45 49 50 50 57 65 71 70 70 70 64 68 73 78 81 76 82 66 56 67 59 61 85 112 157 164 150 148 147 157 148 169 157 120
314 315 317 320 319 323 328 328 326 333 333 329 323 308 283 282 277 276 280 240 198 185 234 252 273 292 310 317 301 305 318 330 336 17 93 3 9 360 357 24 11 24 17 20 19 6 8 21 21 28 36 36 35 44 45 46 59 67 70 70 65 59 52 52 70 55 47 72 75 45 48 49 51 26 28 60 67 99 129 133 115 134 171 143 141
304 303 302 301 308 315 313 310 313 309 310 312 308 300 291 273 267 262 270 271 255 225 208 222 237 259 273 280 301 296 283 283 310 329 336 355 346 21 347 13 28 25 15 18 358 353 22 25 31 38 37 35 37 40 42 37 38 57 59 65 67 65 65 66 72 64 60 52 51 62 47 49 43 29 30 43 57 91 111 119 128 110 35 147 147
299 300 298 300 308 314 309 306 303 299 299 299 293 288 288 283 268 265 269 265 253 253 236 226 222 222 234 255 260 265 272 277 267 285 285 292 307 281 222 289 348 27 12 24 351 2 12 23 29 38 37 41 40 47 41 46 44 60 61 61 61 59 60 69 71 66 66 61 61 73 77 64 55 39 44 49 44 56 96 124 140 143 157 195 203
323 315 313 312 311 306 304 303 302 300 298 287 280 278 273 275 274 267 270 276 264 254 246 240 237 216 213 227 240 250 262 264 260 230 243 252 263 266 264 226 193 177 139 331 347 347 9 23 32 41 38 46 53 53 57 66 59 74 80 74 76 44 78 81 90 89 84 84 85 89 95 90 80 73 67 66 63 58 72 85 57 282 230 182 188
320 314 306 306 309 307 301 302 302 301 296 291 291 285 281 281 270 264 261 260 254 248 249 238 232 231 223 217 221 227 236 243 252 258 251 242 250 254 264 265 239 228 173 184 190 197 200 222 128 112 79 76 78 72 69 81 86 100 103 109 115 111 108 100 96 101 101 103 97 86 102 108 102 98 96 91 89 88 76 56 18 33 2 304 271
306 302 297 291 285 287 291 284 283 289 294 296 295 286 274 273 267 266 262 258 249 243 239 232 227 229 232 223 219 219 224 230 238 248 247 250 246 249 247 247 238 238 218 202 206 194 194 199 188 164 153 147 135 136 131 128 132 120 123 121 108 122 122 124 120 123 125 120 121 120 126 132 133 142 130 124 137 132 140 131 114 81 9 337 323
312 313 311 310 307 305 298 292 292 284 280 279 285 283 270 258 253 252 257 256 259 251 246 239 230 229 227 229 226 219 220 225 226 231 237 237 241 241 241 246 251 229 232 225 221 220 213 201 204 186 179 172 175 168 171 172 176 152 162 153 162 174 167 152 154 149 153 158 156 159 172 160 165 169 169 173 168 190 177 182 176 185 205 218 266
303 302 299 298 300 299 297 296 298 298 294 288 283 279 266 256 249 248 251 252 246 240 234 236 225 224 226 229 230 228 223 221 219 218 223 228 233 234 234 236 237 236 233 235 235 236 229 225 217 212 198 195 193 190 198 192 201 186 193 185 177 196 191 184 174 183 186 199 190 197 201 202 190 199 200 200 200 202 209 210 205 213 216 219 233
297 296 296 297 298 299 298 293 283 281 270 266 264 270 274 262 251 244 249 248 235 232 224 231 219 221 224 227 227 219 220 216 219 217 224 226 228 227 229 230 229 230 227 228 233 235 235 234 230 224 222 214 209 206 206 206 221 209 212 208 190 206 209 213 200 201 207 221 220 224 221 225 215 228 224 217 221 218 220 231 230 229 232 224 223
293 293 293 294 294 295 295 293 285 280 279 275 270 264 267 257 249 249 246 248 245 233 218 222 217 219 218 226 228 227 221 215 216 217 221 225 223 222 222 219 224 228 220 223 227 228 231 231 231 230 229 227 222 221 213 218 224 218 219 209 213 213 218 221 216 223 215 218 229 234 238 234 225 231 241 237 232 229 225 233 232 230 236 235 224
285 287 289 289 287 288 290 290 288 285 280 280 278 261 263 269 262 244 245 256 240 245 225 221 221 223 224 222 222 221 216 219 223 227 227 225 224 223 214 215 221 224 217 219 223 225 225 226 228 231 231 229 227 225 223 221 226 227 226 220 218 222 223 223 221 225 224 217 220 228 236 235 222 225 231 237 236 234 230 232 236 233 235 238 234
294 287 277 276 281 286 282 282 286 286 284 282 278 273 268 262 255 249 249 256 251 236 230 223 228 234 233 225 222 217 215 218 223 227 231 230 228 227 216 220 223 222 221 215 218 224 224 223 228 229 230 230 227 225 225 223 228 229 230 231 225 223 227 231 232 232 230 225 223 228 231 231 228 231 232 231 232 231 234 236 239 240 237 239 240
296 298 298 297 292 287 286 285 283 284 283 280 276 274 271 271 261 253 256 256 254 241 233 232 229 239 231 227 228 215 215 215 220 222 226 228 228 228 226 225 223 226 225 221 218 217 223 224 224 226 228 230 228 226 227 227 227 229 232 234 233 231 230 232 234 236 237 236 235 234 236 233 231 238 241 235 232 229 230 236 242 243 241 240 239
298 297 299 299 299 293 285 280 278 275 272 278 278 274 273 268 265 255 257 264 255 230 229 236 231 232 237 232 233 222 221 219 218 219 221 219 219 221 225 226 222 231 227 223 224 216 214 223 225 227 229 231 229 226 227 228 229 228 229 233 236 236 236 235 235 235 236 235 238 240 239 236 234 235 242 244 239 234 231 234 239 243 243 242 241
291 290 286 289 284 281 280 279 272 272 268 265 271 275 273 271 272 265 247 248 258 246 235 234 234 231 240 239 234 227 224 223 220 220 214 209 211 214 215 222 217 222 226 227 224 225 222 223 228 228 229 229 230 227 227 228 229 229 229 230 232 234 237 237 236 235 234 235 236 238 239 235 233 234 238 240 241 236 231 232 235 239 240 240 243
281 278 277 273 275 277 275 274 277 273 273 268 259 258 262 266 272 275 268 253 243 235 239 234 231 235 236 240 235 232 228 230 231 226 221 219 214 209 212 215 212 216 223 226 226 223 226 222 228 230 230 229 228 229 229 228 227 227 228 230 230 232 234 236 236 235 234 234 235 235 236 235 234 234 234 238 237 240 235 236 237 234 233 236 241
288 285 280 275 274 270 272 274 273 277 275 272 267 264 256 250 250 258 261 260 252 246 248 238 232 235 239 239 239 233 233 232 227 231 231 227 221 216 211 208 207 216 218 223 225 225 225 226 227 228 230 225 225 228 227 223 223 225 227 231 231 231 233 237 239 237 235 233 234 236 236 236 231 234 235 237 238 236 239 245 243 235 234 235 241
280 282 279 274 267 267 267 269 272 269 270 270 268 265 260 262 266 256 254 258 238 248 247 247 240 239 240 244 245 243 239 230 225 227 229 227 224 219 213 211 213 215 218 217 220 222 224 229 230 228 224 223 223 225 224 223 222 228 226 227 230 233 233 236 239 241 239 234 232 232 232 233 235 236 237 239 240 240 239 241 248 246 240 239 238
278 274 271 269 269 268 268 267 265 264 264 265 266 268 268 268 263 260 258 252 232 256 251 248 252 249 249 249 247 244 233 233 233 231 229 226 225 219 219 221 219 215 216 214 210 218 220 224 227 227 224 221 223 225 227 220 221 224 231 237 236 237 235 235 236 238 241 240 235 232 236 233 231 236 237 237 234 232 231 232 236 241 245 246 246
280 279 277 275 273 273 268 265 265 267 268 265 267 267 263 266 264 264 267 264 246 248 253 254 255 261 260 255 248 245 240 240 235 235 230 227 222 221 224 225 225 221 217 209 213 218 221 219 222 226 228 227 228 227 220 221 220 221 218 228 237 240 237 236 236 236 240 242 241 238 235 233 228 229 229 232 228 228 231 231 232 233 234 237 240
275 276 275 273 268 266 269 271 270 266 263 263 263 276 272 268 269 271 280 273 262 257 257 256 253 251 257 257 254 250 247 243 239 238 232 226 224 225 226 224 225 223 210 210 219 217 220 218 218 224 228 228 231 228 216 218 219 219 219 218 234 236 237 238 235 235 238 240 241 240 241 236 234 224 227 235 239 235 225 228 232 235 236 236 238
272 268 264 269 273 269 260 255 260 269 266 271 272 265 269 274 278 282 274 271 269 267 257 258 256 248 247 251 253 251 249 246 243 241 236 233 228 228 228 224 225 220 216 222 225 223 221 217 216 220 231 234 233 224 212 219 220 219 219 218 231 234 237 239 237 233 234 237 237 238 240 243 242 228 223 228 231 237 242 234 231 234 238 236 234
261 268 266 257 257 263 270 270 261 254 265 271 268 250 258 271 265 272 265 262 262 265 264 260 259 255 243 241 245 246 249 250 247 243 241 238 232 236 233 226 220 223 218 219 222 222 223 220 220 219 230 242 238 229 214 218 220 220 222 220 230 232 236 240 240 236 235 237 237 237 238 245 247 241 225 214 224 231 235 237 238 237 235 237 234
256 254 263 266 262 261 262 266 270 278 273 266 268 273 279 277 276 270 275 268 265 266 268 268 265 258 248 241 239 245 248 248 246 243 243 242 235 232 234 225 221 232 228 229 236 228 232 227 223 219 225 242 246 225 205 218 220 221 219 220 228 232 235 238 240 238 235 235 236 235 238 239 241 241 232 209 216 229 237 239 239 239 239 235 233
263 268 273 274 280 278 274 275 282 278 275 273 273 277 277 279 279 272 269 270 264 266 266 263 262 262 254 247 241 242 247 249 248 246 245 244 240 237 236 222 227 230 227 224 222 218 222 226 223 217 224 238 249 229 207 215 220 219 215 223 226 229 233 236 237 237 236 236 232 231 230 237 238 240 232 209 210 211 233 236 237 236 234 228 226
272 280 282 276 270 272 271 263 275 278 272 268 271 278 280 278 274 270 268 267 261 263 264 262 262 261 257 252 246 244 248 247 247 246 246 246 245 242 240 215 223 229 229 230 221 220 220 223 222 225 220 229 243 235 214 210 217 215 209 219 223 227 232 234 237 233 234 233 232 224 227 235 240 239 231 207 211 203 224 231 234 234 230 225 220
263 266 274 280 280 282 289 290 278 275 271 270 273 275 274 271 268 266 261 264 261 261 260 256 259 262 260 258 255 252 250 250 248 248 245 249 248 243 236 218 228 232 236 237 220 222 225 218 218 224 223 228 243 247 230 210 215 214 210 219 223 229 234 235 232 233 230 231 235 227 220 226 232 239 231 214 212 208 224 228 227 224 226 222 214
257 241 243 263 278 290 285 277 270 267 270 272 271 269 266 266 265 263 264 260 256 253 256 261 265 266 266 264 259 252 252 251 251 250 249 250 252 248 242 237 234 230 236 234 225 223 229 231 214 213 225 225 234 240 236 217 211 214 210 212 222 228 231 233 228 230 231 229 230 233 219 215 225 231 234 224 220 213 221 227 212 215 221 222 189
275 278 287 280 275 270 272 274 273 275 277 272 266 265 265 262 265 269 264 258 256 259 263 265 266 266 265 262 261 255 255 251 247 249 250 257 253 249 248 242 239 235 234 237 227 227 228 237 234 229 225 224 217 230 238 225 215 215 214 210 225 227 233 231 232 227 226 232 229 223 222 207 217 227 230 229 224 220 221 223 209 213 217 194 141
249 260 265 269 275 275 274 270 255 254 258 258 254 256 258 263 267 264 261 261 264 265 263 262 261 260 260 258 257 258 251 247 247 244 248 250 248 237 242 248 244 238 234 235 234 228 228 237 238 230 223 230 226 225 238 238 225 219 218 214 220 228 225 230 233 237 234 231 223 220 222 199 206 220 226 223 221 221 215 198 211 201 167 148 179
287 280 253 248 262 267 270 273 273 263 259 254 247 255 258 258 262 262 265 268 271 267 263 261 261 261 255 250 252 252 249 235 239 234 240 247 245 231 225 233 239 239 239 240 235 234 234 240 243 235 226 226 229 227 227 240 237 225 222 221 222 228 226 222 234 238 236 237 219 220 222 193 203 214 220 219 216 216 196 199 190 187 175 189 136
267 260 265 252 260 262 268 271 269 260 256 254 242 255 253 263 263 266 268 273 273 267 265 264 268 262 260 254 252 250 244 244 247 243 233 239 235 229 226 229 227 231 240 240 242 232 232 240 242 247 242 232 228 234 230 230 238 232 231 231 232 231 229 230 232 239 241 239 229 217 204 185 205 211 212 210 213 207 194 196 193 201 202 167 133
276 275 276 265 257 266 268 275 277 269 265 261 249 255 264 261 263 266 269 271 267 270 273 274 275 274 270 265 260 253 251 250 244 236 234 235 226 209 239 236 224 228 234 237 244 234 232 238 241 245 253 250 234 227 238 236 228 233 236 240 239 237 237 234 237 241 237 239 237 193 172 190 202 204 200 199 198 199 204 201 202 187 148 147 149
262 259 262 266 261 261 267 273 279 275 273 273 262 248 262 259 264 267 269 269 274 276 275 274 276 276 273 271 268 263 258 253 252 237 229 230 228 223 230 237 229 226 223 231 239 238 238 238 243 250 253 255 250 236 240 236 213 219 233 241 241 241 240 237 237 245 246 241 238 218 195 193 195 191 186 192 183 182 189 194 170 143 150 146 165
281 277 286 271 267 271 275 277 280 280 276 281 279 265 257 264 267 267 273 272 271 271 273 274 274 275 274 270 264 261 260 251 241 239 231 231 224 227 229 235 233 227 221 227 233 233 243 244 246 248 251 253 250 247 240 228 199 210 224 231 231 240 240 242 244 243 242 225 202 182 188 190 185 181 153 123 134 142 142 138 134 146 148 164 166
275 283 281 270 268 267 272 276 271 273 277 283 283 279 276 276 273 273 270 265 265 265 267 270 271 272 265 268 259 259 258 259 249 232 238 229 222 213 226 229 221 215 216 227 227 230 234 234 239 245 244 243 241 229 226 229 192 202 218 221 225 224 220 213 218 213 186 165 161 160 158 142 131 129 135 135 130 131 129 140 145 147 146 137 145
285 284 282 269 272 272 269 273 272 271 279 281 278 279 280 277 276 274 264 259 263 264 262 267 269 268 263 258 253 248 245 250 252 243 232 226 218 210 223 239 236 225 218 229 236 241 229 217 221 234 239 245 242 235 237 214 217 204 209 220 220 222 219 216 199 168 139 129 144 161 170 152 161 162 158 153 148 148 152 146 134 139 146 150 166
277 278 275 275 267 263 270 270 273 276 278 276 277 277 277 273 272 267 250 254 261 265 263 265 267 264 257 255 250 247 232 239 245 252 251 246 233 232 234 231 252 235 232 241 240 244 242 231 235 240 228 234 242 280 83 193 217 223 230 231 238 240 227 196 164 164 155 163 174 172 175 178 180 179 176 178 183 183 182 177 167 176 164 179 185
281 285 283 275 274 270 267 268 270 274 270 267 269 272 275 274 268 263 250 251 257 260 253 252 262 255 264 256 254 255 251 243 242 243 248 255 268 227 226 236 242 251 235 227 233 241 247 247 239 260 261 251 265 277 270 265 255 246 239 240 243 242 231 200 168 154 170 181 177 178 190 193 179 179 177 184 175 180 190 179 174 173 184 183 191